[[{"header":{"parameterUnit":"m.s-1","parameterCategory":1,"la1":30.2991,"la2":30.254,"lo1":-89.0895,"lo2":-89.0444,"dy":0.0017,"dx":0.0017,"nx":28,"ny":28,"refTime":"2024-09-30T09:00:00:Z","depth":0,"parameterNumber":2,"parameterNumberName":"U-component_of_WINDS"},"data":[0,0,0,0,0,0,0,0,0,0,0,0,0,0,0,0,0,0,0,0,0,0,0,0,0,0,0,0,0,0,0,0,0,0,0,0,0,0,0,0,0,0,0,0,0,0,0,0,0,0,0,0,0,0,0,0,0,0,0.3207,0.3208,0,0.3315,0.3316,0.3317,0.3368,0.3368,0.3368,0.3368,0.348,0.3483,0.3486,0,0,0,0,0,0,0,0,0,0,0,0,0,0.3045,0.3048,0.3207,0.3208,0.321,0.3315,0.3316,0.3318,0.3368,0.3368,0.3368,0.3368,0.3479,0.3483,0.3486,0,0,0,0,0,0,0,0,0,0,0,0,0,0.313,0.3048,0.3207,0.3247,0.3252,0.3314,0.3316,0.3318,0.3368,0.3368,0.3368,0.3368,0.3478,0.3482,0.3487,0.3518,0,0,0.3501,0.3503,0,0,0,0,0,0,0,0,0.3125,0.3136,0.324,0.3245,0.325,0.3328,0.33,0.3385,0.3368,0.3324,0.3368,0.3367,0.343,0.3438,0.3459,0.3523,0.3528,0.3501,0.3504,0.3506,0.3507,0,0,0,0,0,0,0,0.3119,0.3132,0.325,0.3241,0.3248,0.326,0.3272,0.3317,0.3376,0.3328,0.3332,0.3344,0.3432,0.3454,0.3462,0.3529,0.3501,0.3505,0.3508,0.351,0.3623,0.3623,0,0,0,0,0,0,0.3107,0.3126,0.3246,0.3253,0.3186,0.3263,0.3277,0.3303,0.3376,0.3387,0.3344,0.3346,0.3446,0.3456,0.3466,0.3506,0.3506,0.351,0.3513,0.3622,0.3623,0.3623,0,0,0,0,0,0,0.3103,0.3117,0.3242,0.3191,0.3208,0.3266,0.3295,0.3305,0.3327,0.3388,0.3399,0.3355,0.3447,0.3459,0.3504,0.3511,0.3512,0.3517,0.3622,0.3622,0.3623,0.3586,0,0,0,0,0,0,0.3098,0.3115,0.3127,0.3191,0.321,0.3278,0.3296,0.3307,0.3335,0.3338,0.3401,0.3412,0.3448,0.3497,0.3508,0.3517,0.352,0.3622,0.3622,0.3623,0.3587,0.3586,0.3584,0,0,0,0,0,0.3092,0.3114,0.3128,0.3142,0.3227,0.3278,0.3289,0.333,0.3335,0.3348,0.3386,0.341,0.3508,0.3501,0.3514,0.3524,0.3622,0.3622,0.3623,0.3588,0.3586,0.3584,0,0,0,0,0,0,0.3051,0.3123,0.3139,0.3182,0.3223,0.3287,0.3304,0.3326,0.3368,0.3369,0.3418,0.3432,0.3472,0.3503,0.3494,0.3557,0.3567,0.357,0.3536,0.3534,0.3532,0.3524,0.3524,0,0,0,0,0,0.3046,0.3082,0.3143,0.3175,0.3194,0.3245,0.3269,0.3297,0.3342,0.336,0.3402,0.3445,0.3486,0.3512,0.3553,0.3592,0.3606,0.3605,0.3603,0.3602,0.3604,0.3626,0.3626,0.3625,0.3625,0.3625,0,0,0.3038,0.3082,0.3102,0.3167,0.3203,0.3238,0.326,0.3297,0.3324,0.3366,0.341,0.3442,0.3494,0.3535,0.3556,0.3562,0.3607,0.3602,0.3601,0.3604,0.3627,0.3627,0.3627,0.3625,0.3625,0.3625,0,0,0.3042,0.3078,0.3108,0.3143,0.3195,0.3229,0.3236,0.3295,0.3318,0.3363,0.3394,0.3427,0.3496,0.3531,0.3558,0.3572,0.3595,0.3584,0.3576,0.3597,0.3597,0.3597,0.3602,0.3603,0.3586,0.3586,0.3586,0,0.3025,0.308,0.3121,0.3156,0.3183,0.3221,0.3252,0.3284,0.3347,0.3365,0.3371,0.3458,0.3495,0.3545,0.3548,0.3569,0.3578,0.3578,0.3593,0.3594,0.3595,0.36,0.3601,0.3585,0.3585,0.3585,0.3585,0,0.3056,0.3093,0.3111,0.317,0.32,0.3233,0.3279,0.3304,0.3328,0.336,0.3405,0.3451,0.3501,0.3515,0.3539,0.3568,0.357,0.3584,0.3594,0.3593,0.3598,0.36,0.3582,0.3583,0.3583,0.3584,0,0,0.3038,0.3118,0.3124,0.3151,0.3211,0.3241,0.3274,0.3322,0.3342,0.3385,0.3414,0.347,0.3483,0.3513,0.3542,0.356,0.3567,0.3572,0.3574,0.3569,0.3601,0.359,0.3591,0.3582,0.3583,0.3583,0.3596,0,0.3049,0.3111,0.3148,0.3195,0.323,0.3265,0.3295,0.3334,0.3365,0.3399,0.3434,0.3473,0.3487,0.3505,0.3525,0.3562,0.3574,0.3562,0.361,0.3611,0.3596,0.3594,0.3584,0.3594,0.3599,0.3599,0.3599,0,0.3071,0.3111,0.3161,0.3216,0.3232,0.3257,0.3304,0.3336,0.3381,0.3402,0.3435,0.3463,0.35,0.3507,0.3558,0.3548,0.357,0.3591,0.3593,0.3599,0.3606,0.3601,0.3598,0.3599,0.3603,0.3603,0.3603,0,0.3052,0.3119,0.3157,0.3179,0.3244,0.3261,0.3289,0.3334,0.336,0.3401,0.3418,0.3462,0.3486,0.352,0.3559,0.3561,0.3606,0.3616,0.3625,0.3623,0.3633,0.3632,0.3634,0.3647,0.3647,0.3647,0.3647,0,0.3061,0.309,0.3149,0.3172,0.3206,0.3248,0.328,0.3311,0.335,0.338,0.3414,0.3441,0.3491,0.3525,0.3555,0.3593,0.3603,0.3621,0.3629,0.3619,0.3616,0.3634,0.3634,0.3647,0.3647,0.3647,0.3647,0,0.3046,0.3087,0.3131,0.3188,0.3203,0.3225,0.3274,0.3298,0.333,0.3367,0.3378,0.3429,0.347,0.3512,0.3568,0.3588,0.3624,0.3635,0.3608,0.3613,0.3619,0.3617,0.3632,0.3636,0.3646,0.3645,0.3645,0,0.305,0.3073,0.3132,0.3154,0.3181,0.3216,0.3242,0.3284,0.331,0.3363,0.338,0.3423,0.346,0.3524,0.3565,0.3608,0.362,0.3622,0.3627,0.3614,0.362,0.3618,0.362,0.362,0.362,0.362,0.362,0,0.3051,0.3069,0.3106,0.3148,0.3178,0.3214,0.3252,0.3268,0.3317,0.3344,0.3386,0.3414,0.347,0.3512,0.3559,0.3588,0.3612,0.3617,0.3622,0.3611,0.3595,0.3603,0.3604,0.3617,0.3618,0.3618,0.3618,0.3618,0.3045,0.3067,0.3111,0.315,0.3182,0.3216,0.3241,0.3275,0.331,0.3359,0.3381,0.3423,0.3466,0.3532,0.356,0.3593,0.36,0.3606,0.3607,0.3608,0.3605,0.3589,0.3602,0.3602,0.3602,0.3602,0.3602,0,0.3048,0.3078,0.3113,0.3164,0.3194,0.3212,0.3254,0.3278,0.3314,0.3353,0.3387,0.3435,0.3475,0.3519,0.3562,0.358,0.3592,0.359,0.359,0.3596,0.3597,0.3589,0.358,0.358,0.358,0.358,0.358,0.358,0.3053,0.309,0.3113,0.3166,0.3196,0.3237,0.3259,0.329,0.3321,0.3371,0.3405,0.3433,0.3474,0.352,0.3557,0.3569,0.3584,0.3578,0.3593,0.3594,0.3596,0.3597,0.359,0.3581,0.3581,0.3589,0.3589,0.3589]},{"header":{"parameterUnit":"m.s-1","parameterCategory":1,"la1":30.2991,"la2":30.254,"lo1":-89.0895,"lo2":-89.0444,"dy":0.0017,"dx":0.0017,"nx":28,"ny":28,"refTime":"2024-09-30T09:00:00:Z","depth":0,"parameterNumber":3,"parameterNumberName":"V-component_of_WINDS"},"data":[0,0,0,0,0,0,0,0,0,0,0,0,0,0,0,0,0,0,0,0,0,0,0,0,0,0,0,0,0,0,0,0,0,0,0,0,0,0,0,0,0,0,0,0,0,0,0,0,0,0,0,0,0,0,0,0,0,0,1.51,1.51,0,1.5134,1.5135,1.5135,1.5064,1.5062,1.506,1.5057,1.5096,1.5099,1.5102,0,0,0,0,0,0,0,0,0,0,0,0,0,1.4973,1.4976,1.51,1.51,1.5101,1.5134,1.5135,1.5135,1.5065,1.5062,1.5059,1.5056,1.5094,1.5098,1.5102,0,0,0,0,0,0,0,0,0,0,0,0,0,1.502,1.4977,1.51,1.507,1.5067,1.5134,1.5135,1.5135,1.5065,1.5062,1.5058,1.5055,1.5093,1.5098,1.5103,1.5202,0,0,1.5117,1.5119,0,0,0,0,0,0,0,0,1.5017,1.5025,1.5074,1.5072,1.5069,1.5091,1.5104,1.5158,1.5066,1.5066,1.5057,1.5053,1.5097,1.5101,1.5116,1.5203,1.5205,1.5118,1.512,1.5123,1.5124,0,0,0,0,0,0,0,1.5014,1.5023,1.5114,1.5074,1.5072,1.5054,1.5057,1.5114,1.5101,1.5066,1.5061,1.5066,1.5095,1.5111,1.5116,1.5206,1.5117,1.5122,1.5125,1.5126,1.537,1.5373,0,0,0,0,0,0,1.5015,1.5021,1.5113,1.5115,1.5034,1.5059,1.5062,1.5088,1.51,1.5098,1.5068,1.5062,1.5105,1.511,1.5117,1.5228,1.5122,1.5127,1.513,1.5366,1.5371,1.5375,0,0,0,0,0,0,1.5012,1.5024,1.5111,1.5066,1.5076,1.5065,1.5094,1.509,1.5106,1.5102,1.5099,1.5087,1.5102,1.511,1.5179,1.5229,1.5129,1.5133,1.5362,1.5368,1.5373,1.5455,0,0,0,0,0,0,1.5009,1.5023,1.5061,1.5068,1.5079,1.5173,1.5097,1.5094,1.5114,1.5106,1.5119,1.5117,1.51,1.5173,1.5184,1.5234,1.5137,1.5358,1.5365,1.5371,1.5448,1.5463,1.5476,0,0,0,0,0,1.5005,1.5085,1.5063,1.5075,1.5126,1.5176,1.5183,1.516,1.5119,1.5155,1.5152,1.5117,1.5223,1.518,1.5193,1.5244,1.5354,1.5363,1.537,1.5442,1.546,1.5475,0,0,0,0,0,0,1.5087,1.5085,1.5061,1.5146,1.5162,1.5164,1.5211,1.5181,1.521,1.5201,1.5173,1.5177,1.525,1.5255,1.5208,1.5338,1.5281,1.5292,1.5331,1.5349,1.5362,1.5357,1.5141,0,0,0,0,0,1.5115,1.5155,1.5152,1.5228,1.5236,1.5222,1.5244,1.5225,1.524,1.5247,1.5249,1.5265,1.5301,1.5326,1.536,1.545,1.5449,1.5491,1.5505,1.5516,1.5525,1.5567,1.5584,1.5401,1.5401,1.5401,0,0,1.5173,1.5177,1.5205,1.5244,1.5254,1.5295,1.5228,1.5277,1.5307,1.5254,1.5317,1.532,1.5336,1.5415,1.5449,1.5421,1.5575,1.5527,1.5536,1.5538,1.5577,1.5594,1.561,1.5407,1.5406,1.5405,0,0,1.5298,1.5308,1.5368,1.5378,1.5393,1.5382,1.5397,1.5403,1.5402,1.5465,1.5424,1.546,1.5525,1.5536,1.5551,1.5677,1.5644,1.5689,1.576,1.5801,1.5815,1.5828,1.5868,1.5883,1.5699,1.5699,1.5699,0,1.5369,1.543,1.5404,1.5453,1.5469,1.5422,1.5481,1.5493,1.5519,1.5531,1.5499,1.5574,1.5583,1.566,1.569,1.5706,1.5719,1.5686,1.5815,1.5828,1.5839,1.5876,1.5892,1.5704,1.5703,1.5703,1.5702,0,1.5512,1.5555,1.5602,1.5624,1.5647,1.5702,1.5683,1.5709,1.5687,1.568,1.5742,1.575,1.5782,1.58,1.5782,1.5874,1.5855,1.582,1.5762,1.5862,1.5896,1.5911,1.5711,1.5709,1.5708,1.5707,0,0,1.5691,1.5695,1.5712,1.5719,1.573,1.5762,1.5814,1.5842,1.5862,1.5882,1.5922,1.5976,1.5942,1.5958,1.594,1.5978,1.607,1.5937,1.5937,1.5957,1.6166,1.6188,1.6205,1.6049,1.6052,1.6054,1.6162,0,1.581,1.5896,1.5872,1.5958,1.5994,1.5948,1.5992,1.6003,1.5997,1.6027,1.6021,1.6057,1.6013,1.6021,1.6056,1.6051,1.611,1.6044,1.6083,1.6085,1.6075,1.6224,1.6249,1.6351,1.6176,1.6179,1.618,0,1.5962,1.5982,1.607,1.6069,1.6084,1.6124,1.6145,1.6176,1.6186,1.6179,1.6195,1.6169,1.6218,1.6162,1.6226,1.6181,1.6196,1.6196,1.62,1.6199,1.6136,1.6223,1.6383,1.6397,1.6203,1.6201,1.6199,0,1.6075,1.6126,1.6183,1.6191,1.6194,1.6222,1.6225,1.6232,1.6249,1.6269,1.6279,1.6306,1.632,1.634,1.6321,1.6283,1.6387,1.6331,1.638,1.638,1.64,1.6398,1.6561,1.6419,1.6419,1.6418,1.6418,0,1.6208,1.6262,1.6233,1.6268,1.6326,1.6299,1.6357,1.6355,1.6361,1.6394,1.6358,1.639,1.6364,1.6394,1.638,1.6432,1.644,1.6434,1.6428,1.6434,1.6434,1.644,1.6431,1.6422,1.6421,1.6421,1.642,0,1.6343,1.6326,1.6384,1.6381,1.6382,1.6424,1.6421,1.6452,1.6443,1.6485,1.6493,1.6479,1.6511,1.6495,1.6529,1.6519,1.6586,1.6574,1.6581,1.6576,1.6623,1.6617,1.6791,1.6811,1.6661,1.6663,1.6664,0,1.6427,1.6466,1.6466,1.6484,1.6488,1.6519,1.6535,1.651,1.6528,1.654,1.657,1.6598,1.6619,1.6672,1.6665,1.669,1.6675,1.6734,1.6678,1.6681,1.6669,1.6665,1.6666,1.6744,1.6746,1.6747,1.6748,0,1.6575,1.6563,1.6587,1.6607,1.6626,1.6642,1.6654,1.6671,1.6646,1.6668,1.6698,1.6714,1.6747,1.6774,1.6795,1.6798,1.6768,1.6766,1.6778,1.6782,1.6782,1.6777,1.6606,1.6762,1.676,1.6759,1.6759,1.6758,1.6683,1.6714,1.6716,1.6743,1.6749,1.676,1.6787,1.678,1.6805,1.6827,1.6812,1.6847,1.6853,1.6878,1.6884,1.691,1.6887,1.6905,1.6909,1.6912,1.6916,1.6782,1.6915,1.6915,1.6914,1.6914,1.6914,0,1.6824,1.6822,1.6847,1.6863,1.6883,1.6853,1.6864,1.6883,1.6913,1.6921,1.6941,1.6974,1.7,1.6994,1.7017,1.7039,1.7025,1.7045,1.7041,1.7041,1.6939,1.6924,1.7055,1.7055,1.7055,1.7055,1.7055,1.7055,1.6899,1.6947,1.6936,1.6986,1.6985,1.7017,1.7025,1.7035,1.704,1.7078,1.7098,1.7093,1.7095,1.7116,1.7138,1.7135,1.7143,1.7167,1.7159,1.7063,1.7049,1.7035,1.7021,1.717,1.717,1.7258,1.7259,1.726]}]]